星链-4095 (STARLINK-4095 )

导读 | 星芒AI

STARLINK-4095 是 SpaceX Starlink 项目中的一颗低轨通信卫星,属于第 18 批组网发射的“星链”卫星之一。该卫星旨在为全球用户提供高速互联网服务,尤其关注网络覆盖不足的地区。它运行在约 550 公里的轨道高度,采用先进推进系统和激光通信技术,以提升连接效率和减少延迟。STARLINK-4095 的部署有助于增强 Starlink 网络的稳定性和覆盖范围,推动全球宽带接入的普及。

基本信息
目录编号:
53170
目录名称:
STARLINK-4095
国际标识:
2022-083AQ
轨道中心:
EARTH
卫星名称:
星链-4095
卫星全名:
星链-4095 (STARLINK-4095 )
卫星状态:
在轨 (已飞行1253 天)
发射日期:
2022-07-17 UTC
国别 :
美国 (US)
星等 :
--
轨道信息
数据来源 国际轨道数据 AOE轨道数据
星历时间 2025-12-21T03:50:04+0800
9小时前
查看轨道信息
2025-12-15T16:00:00+0800
5天前
查看轨道信息
半长轴 6917.9km 6917.834km
偏心率 0.0001275 0.0000614
轨道倾角 53.217° 53.214°
近地点辐角 84.463° 73.693°
升交点赤经 153.101° 177.758°
平近点角 275.650° 312.633°
近地点 538.88km 539.274km
远地点 540.646km 540.124km
周期 95.438分钟 95.437分钟
每日圈数 15.088338 15.088554
详细信息
固有亮度:
5
最大亮度:
2.5
卫星平台:
Starlink v1.5
覆盖范围:
全球
运营商:
太空探索技术公司
运营商所在国:
美国
制造商(研发单位):
太空探索技术公司
制造商所在国:
美国
使用方式:
暂无
卫星简介
星链(Starlink)计划是由太空探索技术公司(SpaceX)提出的一个巨型低轨卫星互联网星座项目,计划在2019年至2024年间在太空搭建由约1.2万颗卫星组成的“星链”网络,其中1584颗将部署在地球上空550千米处的近地轨道,并从2020年开始工作。该卫星仍在工作。
2D轨道图
3D轨道图
轨道高度分析图
轨道倾角分析图
轨道综合分析图
查看轨道综合分析图